• en Suisse
  • Liste des pays
  • À 7 jours
  • Température de l'eau
  • Carte satellitaire
  • Carte météo
  • Widgets météo
  • user-avatar
    Se connecter

    Météo par heure à Lewis

    Ce jour, 18 Octobre, Jeudi

    Heure Température Précipitation Vent Pression Humidité
    00:00 +7°C° 0 mm 8 m/s 758 mmHg 69%
    01:00 +7°C° 0 mm 8 m/s 758 mmHg 69%
    02:00 +7°C° 0 mm 8 m/s 758 mmHg 70%
    03:00 +7°C° 0 mm 8 m/s 758 mmHg 71%
    04:00 +8°C° 0 mm 7 m/s 758 mmHg 71%
    05:00 +8°C° 0 mm 7 m/s 758 mmHg 71%
    06:00 +9°C° 0 mm 7 m/s 759 mmHg 71%
    07:00 +9°C° 0 mm 7 m/s 759 mmHg 71%
    08:00 +9°C° 0 mm 7 m/s 759 mmHg 70%
    09:00 +9°C° 0 mm 7 m/s 759 mmHg 70%
    10:00 +9°C° 0 mm 7 m/s 759 mmHg 70%
    11:00 +9°C° 0 mm 8 m/s 758 mmHg 70%
    12:00 +10°C° 0 mm 8 m/s 758 mmHg 70%
    13:00 +10°C° 0 mm 9 m/s 758 mmHg 71%
    14:00 +10°C° 0 mm 9 m/s 757 mmHg 72%
    15:00 +9°C° 0 mm 10 m/s 757 mmHg 73%
    16:00 +9°C° 0 mm 10 m/s 757 mmHg 74%
    17:00 +9°C° 0 mm 11 m/s 756 mmHg 76%
    18:00 +8°C° 0 mm 11 m/s 756 mmHg 77%
    19:00 +8°C° 0 mm 12 m/s 756 mmHg 77%
    20:00 +8°C° 0 mm 12 m/s 756 mmHg 77%
    21:00 +8°C° 0 mm 13 m/s 755 mmHg 77%
    22:00 +8°C° 0.1 mm 13 m/s 754 mmHg 77%
    23:00 +8°C° 0.1 mm 13 m/s 754 mmHg 77%

    Demain, 19 Octobre, Vendredi

    Heure Température Précipitation Vent Pression Humidité
    00:00 +8°C° 0.1 mm 14 m/s 753 mmHg 77%
    01:00 +8°C° 0.3 mm 14 m/s 752 mmHg 79%
    02:00 +9°C° 0.3 mm 15 m/s 752 mmHg 80%
    03:00 +9°C° 0.3 mm 15 m/s 751 mmHg 82%
    04:00 +9°C° 0.9 mm 14 m/s 751 mmHg 85%
    05:00 +9°C° 0.9 mm 13 m/s 751 mmHg 87%
    06:00 +9°C° 0.9 mm 12 m/s 751 mmHg 90%
    07:00 +9°C° 0.2 mm 11 m/s 752 mmHg 84%
    08:00 +9°C° 0.2 mm 10 m/s 752 mmHg 79%
    09:00 +8°C° 0.2 mm 9 m/s 752 mmHg 73%
    10:00 +10°C° 0 mm 9 m/s 753 mmHg 72%
    11:00 +10°C° 0 mm 9 m/s 754 mmHg 70%
    12:00 +10°C° 0 mm 8 m/s 754 mmHg 68%
    13:00 +10°C° 0 mm 8 m/s 755 mmHg 69%
    14:00 +10°C° 0 mm 8 m/s 755 mmHg 69%
    15:00 +10°C° 0 mm 8 m/s 755 mmHg 70%
    16:00 +9°C° 0 mm 7 m/s 756 mmHg 72%
    17:00 +9°C° 0 mm 7 m/s 756 mmHg 74%
    18:00 +9°C° 0 mm 6 m/s 756 mmHg 76%
    19:00 +9°C° 0 mm 6 m/s 756 mmHg 77%
    20:00 +9°C° 0 mm 6 m/s 757 mmHg 78%
    21:00 +9°C° 0 mm 6 m/s 757 mmHg 78%
    22:00 +9°C° 0 mm 6 m/s 756 mmHg 80%
    23:00 +9°C° 0 mm 7 m/s 756 mmHg 81%

    Après-demain, 20 Octobre, Samedi

    Heure Température Précipitation Vent Pression Humidité
    00:00 +9°C° 0 mm 8 m/s 756 mmHg 83%
    01:00 +10°C° 0 mm 8 m/s 756 mmHg 86%
    02:00 +10°C° 0 mm 9 m/s 755 mmHg 90%
    03:00 +11°C° 0 mm 9 m/s 755 mmHg 94%
    04:00 +11°C° 0.1 mm 10 m/s 754 mmHg 93%
    05:00 +11°C° 0.1 mm 10 m/s 754 mmHg 93%
    06:00 +11°C° 0.1 mm 11 m/s 753 mmHg 92%
    07:00 +11°C° 0.2 mm 11 m/s 753 mmHg 93%
    08:00 +10°C° 0.2 mm 12 m/s 753 mmHg 93%
    09:00 +12°C° 0.2 mm 12 m/s 753 mmHg 94%
    10:00 +12°C° 0.1 mm 12 m/s 753 mmHg 94%
    11:00 +12°C° 0.1 mm 12 m/s 753 mmHg 95%
    12:00 +12°C° 0.1 mm 11 m/s 753 mmHg 95%
    13:00 +12°C° 0.1 mm 11 m/s 753 mmHg 95%
    14:00 +12°C° 0.1 mm 11 m/s 753 mmHg 94%
    15:00 +12°C° 0.1 mm 11 m/s 753 mmHg 94%
    16:00 +12°C° 0.1 mm 11 m/s 753 mmHg 94%
    17:00 +12°C° 0.1 mm 12 m/s 753 mmHg 94%
    18:00 +12°C° 0.1 mm 12 m/s 753 mmHg 94%
    19:00 +12°C° 0.2 mm 11 m/s 754 mmHg 94%
    20:00 +12°C° 0.2 mm 11 m/s 754 mmHg 94%
    21:00 +12°C° 0.2 mm 10 m/s 754 mmHg 94%
    22:00 +11°C° 0.1 mm 10 m/s 754 mmHg 89%
    23:00 +11°C° 0.1 mm 9 m/s 755 mmHg 84%

    21 Octobre, Dimanche

    Heure Température Précipitation Vent Pression Humidité
    00:00 +10°C° 0.1 mm 9 m/s 755 mmHg 79%
    01:00 +10°C° 0.2 mm 9 m/s 755 mmHg 81%
    02:00 +10°C° 0.2 mm 9 m/s 755 mmHg 82%
    03:00 +10°C° 0.2 mm 9 m/s 755 mmHg 83%
    04:00 +8°C° 0.4 mm 10 m/s 755 mmHg 81%
    05:00 +8°C° 0.4 mm 10 m/s 756 mmHg 80%
    06:00 +8°C° 0.4 mm 10 m/s 756 mmHg 79%
    07:00 +8°C° 0.7 mm 11 m/s 756 mmHg 79%
    08:00 +8°C° 0.7 mm 11 m/s 756 mmHg 78%
    09:00 +7°C° 0.7 mm 11 m/s 756 mmHg 78%
    10:00 +7°C° 0.2 mm 12 m/s 756 mmHg 74%
    11:00 +7°C° 0.2 mm 13 m/s 757 mmHg 69%
    12:00 +8°C° 0.2 mm 13 m/s 757 mmHg 65%
    13:00 +7°C° 0.1 mm 13 m/s 757 mmHg 63%
    14:00 +7°C° 0.1 mm 13 m/s 758 mmHg 61%
    15:00 +6°C° 0.1 mm 14 m/s 758 mmHg 59%
    16:00 +6°C° 0.2 mm 14 m/s 759 mmHg 62%
    17:00 +5°C° 0.2 mm 14 m/s 759 mmHg 64%
    18:00 +5°C° 0.2 mm 14 m/s 759 mmHg 66%
    19:00 +5°C° 0.1 mm 14 m/s 760 mmHg 64%
    20:00 +5°C° 0.1 mm 14 m/s 760 mmHg 63%
    21:00 +5°C° 0.1 mm 14 m/s 761 mmHg 61%
    22:00 +5°C° 0.1 mm 14 m/s 761 mmHg 62%
    23:00 +5°C° 0.1 mm 14 m/s 762 mmHg 63%

    22 Octobre, Lundi

    Heure Température Précipitation Vent Pression Humidité
    00:00 +5°C° 0.1 mm 14 m/s 762 mmHg 64%
    01:00 +7°C° 0.1 mm 13 m/s 762 mmHg 66%
    02:00 +7°C° 0.1 mm 13 m/s 762 mmHg 67%
    03:00 +7°C° 0.1 mm 12 m/s 762 mmHg 69%
    04:00 +7°C° 0.3 mm 13 m/s 762 mmHg 71%
    05:00 +7°C° 0.3 mm 13 m/s 762 mmHg 73%
    06:00 +6°C° 0.3 mm 14 m/s 762 mmHg 75%
    07:00 +6°C° 0.4 mm 14 m/s 762 mmHg 76%
    08:00 +6°C° 0.4 mm 14 m/s 762 mmHg 77%
    09:00 +6°C° 0.4 mm 14 m/s 762 mmHg 78%
    10:00 +8°C° 0.2 mm 14 m/s 762 mmHg 78%
    11:00 +8°C° 0.2 mm 14 m/s 762 mmHg 78%
    12:00 +8°C° 0.2 mm 14 m/s 762 mmHg 78%
    13:00 +8°C° 0.9 mm 15 m/s 761 mmHg 80%
    14:00 +8°C° 0.9 mm 15 m/s 761 mmHg 82%
    15:00 +8°C° 0.9 mm 15 m/s 761 mmHg 85%
    16:00 +8°C° 0.4 mm 15 m/s 761 mmHg 84%
    17:00 +9°C° 0.4 mm 15 m/s 762 mmHg 83%
    18:00 +9°C° 0.4 mm 14 m/s 762 mmHg 82%
    19:00 +9°C° 0 mm 14 m/s 762 mmHg 82%
    20:00 +9°C° 0 mm 14 m/s 763 mmHg 82%
    21:00 +8°C° 0 mm 13 m/s 763 mmHg 81%
    22:00 +8°C° 0.1 mm 13 m/s 763 mmHg 82%
    23:00 +8°C° 0.1 mm 13 m/s 763 mmHg 82%

    23 Octobre, Mardi

    Heure Température Précipitation Vent Pression Humidité
    00:00 +8°C° 0.1 mm 12 m/s 763 mmHg 82%
    01:00 +8°C° 0.1 mm 12 m/s 764 mmHg 83%
    02:00 +8°C° 0.1 mm 12 m/s 764 mmHg 84%
    03:00 +8°C° 0.1 mm 11 m/s 764 mmHg 84%
    04:00 +8°C° 0 mm 11 m/s 764 mmHg 84%
    05:00 +8°C° 0 mm 11 m/s 764 mmHg 83%
    06:00 +8°C° 0 mm 10 m/s 764 mmHg 82%
    07:00 +8°C° 0 mm 10 m/s 764 mmHg 82%
    08:00 +8°C° 0 mm 10 m/s 764 mmHg 83%
    09:00 +8°C° 0 mm 10 m/s 764 mmHg 84%
    10:00 +8°C° 0 mm 10 m/s 764 mmHg 84%
    11:00 +8°C° 0 mm 10 m/s 764 mmHg 85%
    12:00 +8°C° 0 mm 10 m/s 764 mmHg 86%
    13:00 +8°C° 0 mm 10 m/s 764 mmHg 86%
    14:00 +8°C° 0 mm 10 m/s 764 mmHg 86%
    15:00 +8°C° 0 mm 10 m/s 764 mmHg 87%
    16:00 +8°C° 0 mm 9 m/s 764 mmHg 87%
    17:00 +8°C° 0 mm 9 m/s 765 mmHg 87%
    18:00 +9°C° 0 mm 8 m/s 765 mmHg 87%
    19:00 +9°C° 0 mm 8 m/s 765 mmHg 87%
    20:00 +9°C° 0 mm 8 m/s 765 mmHg 87%
    21:00 +9°C° 0 mm 7 m/s 765 mmHg 86%
    22:00 +9°C° 0 mm 7 m/s 765 mmHg 86%
    23:00 +8°C° 0 mm 7 m/s 765 mmHg 86%
    Voir plus